Muscatine, IA

2:09 AM CST on December 09, 2019 (GMT -0600)
Muscatine Municipal

Weather History for KMUT - October, 2019

Change the Weather History Date:

Wednesday, October 30, 2019

  Actual Average Record
Temperature  
Mean Temperature 36 °F -  
Max Temperature 39 °F 58 °F 85 °F (1950)
Min Temperature 32 °F 39 °F 17 °F (1988)
Degree Days  
Heating Degree Days 30    
Moisture  
Dew Point 29 °F    
Average Humidity 78    
Maximum Humidity 93    
Minimum Humidity 60    
Precipitation  
Precipitation 0.00 in - - ()
Sea Level Pressure  
Sea Level Pressure 30.22 in    
Wind  
Wind Speed 7 mph ()    
Max Wind Speed 17 mph    
Max Gust Speed 22 mph    
Visibility 8.2 miles    
Events Rain , Snow    
Averages and records for this station are not official NWS values.
T = Trace of Precipitation, MM = Missing Value Source: Averaged Metar Reports

Daily Weather History Graph

Daily Weather History Graph

Search for Another Location

Airport or City:

Astronomy

Oct. 30, 2019 Rise Set
Actual Time 7:33 AM CDT 6:02 PM CDT
Civil Twilight 7:04 AM CDT 6:31 PM CDT
Nautical Twilight 6:32 AM CDT 7:03 PM CDT
Astronomical Twilight 6:00 AM CDT 7:35 PM CDT
Moon 10:18 AM CDT (10/30) 8:08 PM CDT (10/30)
Length of Visible Light 11h 26m
Length of Day
10h 28m
Waxing Crescent, 9% of the Moon is Illuminated
Oct 30
Waxing Crescent
Nov 4
First Quarter
Nov 12
Full
Nov 19
Last Quarter
Nov 26
New

Hourly Weather History & Observations

Time (CDT) Temp. Windchill Dew Point Humidity Pressure Visibility Wind Dir Wind Speed Gust Speed Precip Events Conditions
12:15 AM 33.8 °F - 30.2 °F 87% 30.34 in 10.0 mi Calm Calm - N/A   Mostly Cloudy
12:35 AM 33.8 °F - 32.0 °F 93% 30.34 in 10.0 mi Calm Calm - N/A   Overcast
12:55 AM 33.8 °F - 30.2 °F 87% 30.34 in 9.0 mi Calm Calm - N/A   Overcast
1:15 AM 33.8 °F 30.8 °F 30.2 °F 87% 30.32 in 2.0 mi ENE 3.5 mph - N/A   Overcast
1:35 AM 33.8 °F 30.8 °F 30.2 °F 87% 30.33 in 10.0 mi NNE 3.5 mph - N/A   Overcast
1:55 AM 33.8 °F 28.6 °F 30.2 °F 87% 30.31 in 10.0 mi North 5.8 mph - N/A   Overcast
2:15 AM 33.8 °F 28.6 °F 30.2 °F 87% 30.30 in 10.0 mi NNE 5.8 mph - N/A   Overcast
2:35 AM 35.6 °F 32.8 °F 30.2 °F 81% 30.31 in 10.0 mi North 3.5 mph - N/A   Overcast
2:55 AM 35.6 °F 31.7 °F 30.2 °F 81% 30.31 in 10.0 mi NNE 4.6 mph - N/A   Overcast
3:15 AM 35.6 °F 30.7 °F 30.2 °F 81% 30.30 in 10.0 mi NNE 5.8 mph - N/A   Overcast
3:35 AM 35.6 °F - 30.2 °F 81% 30.30 in 10.0 mi Calm Calm - N/A   Overcast
3:55 AM 35.6 °F 30.7 °F 30.2 °F 81% 30.28 in 10.0 mi North 5.8 mph - N/A   Overcast
4:15 AM 35.6 °F 32.8 °F 30.2 °F 81% 30.28 in 10.0 mi NNE 3.5 mph - N/A   Overcast
4:35 AM 35.6 °F - 30.2 °F 81% 30.29 in 10.0 mi Calm Calm - N/A   Overcast
4:55 AM 35.6 °F 31.7 °F 30.2 °F 81% 30.28 in 10.0 mi North 4.6 mph - N/A   Overcast
5:15 AM 35.6 °F 29.2 °F 32.0 °F 87% 30.26 in 8.0 mi North 8.1 mph - N/A   Overcast
5:35 AM 35.6 °F 29.9 °F 30.2 °F 81% 30.27 in 10.0 mi North 6.9 mph - N/A   Overcast
5:55 AM 35.6 °F 31.7 °F 30.2 °F 81% 30.28 in 6.0 mi NNE 4.6 mph - N/A   Haze
6:15 AM 35.6 °F 30.7 °F 30.2 °F 81% 30.29 in 6.0 mi North 5.8 mph - N/A   Haze
6:35 AM 35.6 °F 30.7 °F 30.2 °F 81% 30.28 in 2.0 mi NE 5.8 mph - N/A   Haze
6:55 AM 35.6 °F 31.7 °F 30.2 °F 81% 30.29 in 10.0 mi NNE 4.6 mph - N/A   Overcast
7:15 AM 35.6 °F 30.7 °F 30.2 °F 81% 30.29 in 10.0 mi North 5.8 mph - N/A   Overcast
7:35 AM 35.6 °F 28.6 °F 30.2 °F 81% 30.28 in 10.0 mi North 9.2 mph - N/A   Overcast
7:55 AM 35.6 °F 29.2 °F 30.2 °F 81% 30.29 in 10.0 mi NNE 8.1 mph - N/A   Overcast
8:15 AM 35.6 °F 28.6 °F 28.4 °F 75% 30.29 in 10.0 mi NNE 9.2 mph - N/A   Overcast
8:35 AM 35.6 °F 28.6 °F 30.2 °F 81% 30.29 in 10.0 mi NNE 9.2 mph - N/A   Overcast
8:55 AM 35.6 °F 28.0 °F 28.4 °F 75% 30.30 in 10.0 mi NNE 10.4 mph - N/A   Overcast
9:15 AM 35.6 °F 26.6 °F 28.4 °F 75% 30.27 in 10.0 mi NE 13.8 mph - N/A   Overcast
9:35 AM 35.6 °F 28.0 °F 28.4 °F 75% 30.27 in 10.0 mi NE 10.4 mph - N/A   Overcast
9:55 AM 35.6 °F 26.6 °F 28.4 °F 75% 30.26 in 10.0 mi NE 13.8 mph - N/A   Overcast
10:15 AM 37.4 °F 30.8 °F 28.4 °F 70% 30.28 in 10.0 mi NNE 9.2 mph - N/A   Overcast
10:35 AM 37.4 °F 30.3 °F 28.4 °F 70% 30.27 in 10.0 mi NNE 10.4 mph - N/A   Overcast
10:55 AM 37.4 °F 29.3 °F 28.4 °F 70% 30.27 in 10.0 mi NNE 12.7 mph - N/A   Overcast
11:15 AM 37.4 °F 28.9 °F 26.6 °F 65% 30.27 in 10.0 mi NNE 13.8 mph - N/A   Overcast
11:35 AM 37.4 °F 29.3 °F 26.6 °F 65% 30.25 in 10.0 mi NNE 12.7 mph - N/A   Overcast
11:55 AM 37.4 °F 30.3 °F 26.6 °F 65% 30.25 in 10.0 mi NNE 10.4 mph - N/A   Overcast
12:15 PM 37.4 °F 28.9 °F 26.6 °F 65% 30.24 in 10.0 mi NNE 13.8 mph - N/A   Overcast
12:35 PM 37.4 °F 28.5 °F 26.6 °F 65% 30.23 in 10.0 mi NNE 15.0 mph - N/A   Overcast
12:55 PM 39.2 °F 31.2 °F 26.6 °F 61% 30.23 in 10.0 mi NNE 13.8 mph - N/A   Mostly Cloudy
1:15 PM 39.2 °F 31.2 °F 26.6 °F 61% 30.21 in 10.0 mi NNE 13.8 mph - N/A   Mostly Cloudy
1:35 PM 39.2 °F 32.0 °F 26.6 °F 61% 30.20 in 10.0 mi NNE 11.5 mph 17.3 mph N/A   Mostly Cloudy
1:55 PM 39.2 °F 30.2 °F 26.6 °F 61% 30.18 in 10.0 mi NNE 17.3 mph - N/A   Mostly Cloudy
2:15 PM 39.2 °F 31.2 °F 26.6 °F 61% 30.19 in 10.0 mi North 13.8 mph - N/A   Mostly Cloudy
2:35 PM 39.2 °F 30.8 °F 28.4 °F 65% 30.17 in 9.0 mi North 15.0 mph - N/A Rain Light Rain
2:55 PM 39.2 °F 30.8 °F 28.4 °F 65% 30.16 in 10.0 mi North 15.0 mph - N/A   Mostly Cloudy
3:15 PM 39.2 °F 30.5 °F 26.6 °F 61% 30.14 in 10.0 mi North 16.1 mph - N/A   Scattered Clouds
3:35 PM 37.4 °F 28.9 °F 26.6 °F 65% 30.16 in 10.0 mi North 13.8 mph 20.7 mph N/A   Overcast
3:55 PM 37.4 °F 29.3 °F 26.6 °F 65% 30.17 in 10.0 mi North 12.7 mph 19.6 mph N/A   Overcast
4:15 PM 37.4 °F 28.5 °F 26.6 °F 65% 30.15 in 10.0 mi North 15.0 mph 20.7 mph N/A   Overcast
4:35 PM 37.4 °F 28.9 °F 26.6 °F 65% 30.16 in 10.0 mi North 13.8 mph - N/A   Overcast
4:55 PM 37.4 °F 27.8 °F 24.8 °F 60% 30.15 in 10.0 mi North 17.3 mph - N/A   Overcast
5:15 PM 37.4 °F 28.5 °F 24.8 °F 60% 30.14 in 10.0 mi North 15.0 mph 21.9 mph N/A   Overcast
5:35 PM 35.6 °F 25.9 °F 26.6 °F 70% 30.14 in 10.0 mi NNW 16.1 mph - N/A   Overcast
5:55 PM 33.8 °F 24.3 °F 28.4 °F 81% 30.13 in 10.0 mi North 13.8 mph 21.9 mph N/A   Overcast
6:15 PM 33.8 °F 23.9 °F 28.4 °F 81% 30.14 in 10.0 mi North 15.0 mph - N/A   Overcast
6:35 PM 33.8 °F 24.8 °F 28.4 °F 81% 30.13 in 10.0 mi North 12.7 mph - N/A   Overcast
6:55 PM 33.8 °F 25.8 °F 30.2 °F 87% 30.13 in 10.0 mi North 10.4 mph 16.1 mph N/A   Overcast
7:15 PM 33.8 °F 24.3 °F 30.2 °F 87% 30.13 in 10.0 mi North 13.8 mph - N/A   Overcast
7:35 PM 33.8 °F 27.0 °F 30.2 °F 87% 30.14 in 10.0 mi North 8.1 mph 13.8 mph N/A   Overcast
7:55 PM 33.8 °F 26.4 °F 30.2 °F 87% 30.14 in 6.0 mi North 9.2 mph 16.1 mph N/A Rain Light Rain
8:15 PM 32.0 °F 23.0 °F 30.2 °F 93% 30.13 in 1.8 mi North 11.5 mph - N/A Snow Light Snow
8:35 PM 32.0 °F 23.6 °F 30.2 °F 93% 30.12 in 1.8 mi North 10.4 mph - N/A Snow Light Snow
8:55 PM 32.0 °F 24.2 °F 30.2 °F 93% 30.12 in 2.0 mi NNW 9.2 mph 17.3 mph N/A Snow Light Snow
9:15 PM 32.0 °F 23.6 °F 30.2 °F 93% 30.12 in 2.0 mi North 10.4 mph - N/A Snow Light Snow
9:35 PM 32.0 °F 22.5 °F 30.2 °F 93% 30.11 in 2.0 mi North 12.7 mph - N/A Snow Light Snow
9:55 PM 32.0 °F 23.0 °F 30.2 °F 93% 30.11 in 1.5 mi NNW 11.5 mph - N/A Snow Light Snow
10:15 PM 32.0 °F 23.0 °F 30.2 °F 93% 30.11 in 1.5 mi NNW 11.5 mph - N/A Snow Light Snow
10:35 PM 32.0 °F 22.1 °F 30.2 °F 93% 30.12 in 2.0 mi NNW 13.8 mph - N/A Snow Light Snow
10:55 PM 32.0 °F 22.5 °F 30.2 °F 93% 30.11 in 1.8 mi NNW 12.7 mph - N/A Snow Light Snow
11:15 PM 32.0 °F 21.6 °F 30.2 °F 93% 30.10 in 1.2 mi NNW 15.0 mph 20.7 mph N/A   Overcast
11:35 PM 32.0 °F 22.5 °F 30.2 °F 93% 30.09 in 1.5 mi NNW 12.7 mph 18.4 mph N/A Snow Light Snow
11:55 PM 32.0 °F 22.5 °F 30.2 °F 93% 30.08 in 2.0 mi NNW 12.7 mph - N/A Snow Light Snow